Location: Mount Graham
(32.7016°N, 109.8912°W)
Time: 01:35:52
(UTC-07:00)

Cosmos 1340 - Visible Passes

Search period start: 02 August 2014 00:00
Search period end: 12 August 2014 00:00
Orbit: 524 x 529 km, 81.2° (Epoch: 01 August)

Date Brightness Start Highest point End Pass type
(mag) Time Alt. Az. Time Alt. Az. Time Alt. Az.
02 Aug 5.4 22:25:31 17° N 22:25:31 17° N 22:26:29 10° N visible
03 Aug 5.2 22:13:41 19° N 22:13:41 19° N 22:14:54 10° N visible
04 Aug 4.9 22:01:48 22° N 22:01:48 22° N 22:03:17 10° N visible
05 Aug 4.6 21:49:53 26° N 21:49:53 26° N 21:51:40 10° N visible
06 Aug 4.2 21:37:53 32° N 21:37:53 32° N 21:40:03 10° N visible
07 Aug 3.7 21:25:50 40° N 21:25:50 40° N 21:28:25 10° N visible
08 Aug 3.2 21:13:43 53° NNE 21:13:43 53° NNE 21:16:46 10° N visible
09 Aug 2.7 21:01:29 68° ENE 21:01:29 68° ENE 21:05:06 10° NNE visible
10 Aug 2.6 20:49:07 57° SE 20:49:35 63° E 20:53:26 10° NNE visible
11 Aug 2.7 20:36:36 35° SSE 20:37:56 56° E 20:41:45 10° NNE visible
